| time (UTC) | temp F | wind direction | speed knots | gust knots | rain 1hr in | rain 24hr in | rain mn in | humidity % | barometer mb |
| 20260508043044 | 51 | 0.0 | 0.0 | 0.00 | 0.01 | 0.00 | 69 | 1012.1 | |
| 20260508041546 | 51 | 0.0 | 0.0 | 0.00 | 0.01 | 0.00 | 71 | 1011.9 | |
| 20260508040051 | 51 | 0.0 | 0.0 | 0.00 | 0.01 | 0.00 | 71 | 1011.6 | |
| 20260508034548 | 51 | 0.0 | 0.0 | 0.00 | 0.01 | 0.01 | 72 | 1011.6 | |
| 20260508033047 | 50 | 0.0 | 0.0 | 0.00 | 0.01 | 0.01 | 74 | 1011.5 | |
| 20260508031544 | 50 | 0.0 | 0.0 | 0.00 | 0.01 | 0.01 | 77 | 1011.4 | |
| 20260508030043 | 50 | 0.0 | 0.0 | 0.00 | 0.01 | 0.01 | 78 | 1011.5 | |
| 20260508024549 | 51 | 0.0 | 0.0 | 0.00 | 0.01 | 0.01 | 78 | 1011.3 | |
| 20260508023049 | 51 | 0.0 | 0.0 | 0.00 | 0.01 | 0.01 | 78 | 1011.3 | |
| 20260508021550 | 51 | 0.0 | 0.0 | 0.00 | 0.01 | 0.01 | 78 | 1011.3 | |
| 20260508020046 | 51 | 0.0 | 0.0 | 0.00 | 0.01 | 0.01 | 78 | 1011.2 | |
| 20260508014547 | 51 | 0.0 | 0.0 | 0.00 | 0.01 | 0.01 | 77 | 1011.3 | |
| 20260508013046 | 52 | 0.0 | 0.0 | 0.00 | 0.01 | 0.01 | 76 | 1011.1 | |
| 20260508011541 | 52 | 0.0 | 0.0 | 0.00 | 0.01 | 0.01 | 75 | 1011.0 | |
| 20260508010046 | 53 | 0.0 | 0.0 | 0.00 | 0.01 | 0.01 | 74 | 1010.7 | |
| 20260508004548 | 53 | 0.0 | 0.0 | 0.00 | 0.01 | 0.01 | 73 | 1010.4 | |
| 20260508003045 | 54 | 0.0 | 0.0 | 0.00 | 0.01 | 0.01 | 71 | 1010.2 | |
| 20260508001544 | 54 | 0.0 | 0.0 | 0.00 | 0.01 | 0.01 | 70 | 1010.1 | |
| 20260508000051 | 55 | 0.0 | 0.0 | 0.00 | 0.01 | 0.01 | 69 | 1010.0 | |
| 20260507234546 | 56 | 0.0 | 0.0 | 0.00 | 0.01 | 0.01 | 68 | 1009.8 | |
| 20260507233048 | 56 | 0.0 | 0.0 | 0.00 | 0.01 | 0.01 | 67 | 1009.6 | |
| 20260507231546 | 57 | 0.0 | 0.0 | 0.00 | 0.01 | 0.01 | 66 | 1009.4 | |
| 20260507230051 | 57 | 0.0 | 0.0 | 0.00 | 0.01 | 0.01 | 66 | 1009.3 | |
| 20260507224545 | 58 | 0.0 | 0.0 | 0.00 | 0.01 | 0.01 | 65 | 1009.1 | |
| 20260507223042 | 59 | 0.0 | 0.0 | 0.00 | 0.01 | 0.01 | 62 | 1008.9 | |
| 20260507221547 | 59 | 0.0 | 0.0 | 0.00 | 0.01 | 0.01 | 61 | 1008.8 | |
| 20260507220045 | 59 | 0.0 | 0.0 | 0.00 | 0.01 | 0.01 | 60 | 1008.8 | |
| 20260507214600 | 59 | 0.0 | 0.0 | 0.00 | 0.01 | 0.01 | 59 | 1008.9 | |
| 20260507213045 | 60 | 0.0 | 0.0 | 0.00 | 0.01 | 0.01 | 59 | 1008.9 | |
| 20260507211549 | 60 | 0.0 | 0.0 | 0.00 | 0.01 | 0.01 | 61 | 1009.0 | |
| 20260507210058 | 60 | 0.0 | 0.0 | 0.00 | 0.01 | 0.01 | 60 | 1008.9 | |
| 20260507204548 | 61 | 0.0 | 0.0 | 0.00 | 0.01 | 0.01 | 60 | 1008.9 | |
| 20260507203102 | 61 | 0.0 | 0.0 | 0.00 | 0.01 | 0.01 | 58 | 1008.8 | |
| 20260507201555 | 61 | 0.0 | 0.0 | 0.00 | 0.01 | 0.01 | 58 | 1008.9 | |
| 20260507194550 | 62 | 0.0 | 0.0 | 0.00 | 0.01 | 0.01 | 53 | 1008.8 | |
| 20260507193051 | 62 | 0.0 | 0.0 | 0.00 | 0.01 | 0.01 | 54 | 1009.1 | |
| 20260507191547 | 63 | 0.0 | 0.0 | 0.00 | 0.01 | 0.01 | 52 | 1009.4 | |
| 20260507190057 | 62 | 0.0 | 0.0 | 0.00 | 0.01 | 0.01 | 51 | 1009.5 | |
| 20260507184550 | 60 | 0.0 | 0.0 | 0.00 | 0.01 | 0.01 | 51 | 1009.4 | |
| 20260507183049 | 59 | 0.0 | 0.0 | 0.00 | 0.01 | 0.01 | 51 | 1009.7 | |
| 20260507181543 | 59 | 0.0 | 0.0 | 0.00 | 0.01 | 0.01 | 54 | 1010.2 | |
| 20260507180050 | 58 | 0.0 | 0.0 | 0.00 | 0.01 | 0.01 | 54 | 1010.3 | |
| 20260507174549 | 57 | 0.0 | 0.0 | 0.00 | 0.01 | 0.01 | 54 | 1010.3 | |
| 20260507173045 | 57 | 0.0 | 0.0 | 0.00 | 0.01 | 0.01 | 54 | 1010.9 | |
| 20260507171544 | 56 | 0.0 | 0.0 | 0.00 | 0.01 | 0.01 | 55 | 1011.3 | |
| 20260507170051 | 56 | 0.0 | 0.0 | 0.00 | 0.01 | 0.01 | 56 | 1011.4 | |
| 20260507164556 | 55 | 0.0 | 0.0 | 0.00 | 0.01 | 0.01 | 57 | 1011.6 | |
| 20260507163044 | 55 | 0.0 | 0.0 | 0.00 | 0.01 | 0.01 | 57 | 1011.7 | |
| 20260507161545 | 55 | 0.0 | 0.0 | 0.00 | 0.01 | 0.01 | 56 | 1012.0 | |
| 20260507160057 | 54 | 0.0 | 0.0 | 0.00 | 0.01 | 0.01 | 60 | 1012.1 | |
| 20260507154551 | 54 | 0.0 | 0.0 | 0.00 | 0.03 | 0.01 | 60 | 1012.2 | |
| 20260507153048 | 54 | 0.0 | 0.0 | 0.00 | 0.03 | 0.01 | 61 | 1012.4 | |
| 20260507151548 | 54 | 0.0 | 0.0 | 0.00 | 0.03 | 0.01 | 62 | 1012.4 | |
| 20260507150048 | 53 | 0.0 | 0.0 | 0.00 | 0.03 | 0.01 | 66 | 1012.7 | |
| 20260507144545 | 53 | 0.0 | 0.0 | 0.00 | 0.07 | 0.01 | 67 | 1012.9 | |
| 20260507143057 | 53 | 0.0 | 0.0 | 0.00 | 0.07 | 0.01 | 67 | 1013.0 | |
| 20260507141552 | 52 | 0.0 | 0.0 | 0.00 | 0.07 | 0.01 | 66 | 1013.1 | |
| 20260507140043 | 52 | 0.0 | 0.0 | 0.00 | 0.07 | 0.01 | 64 | 1013.1 | |
| 20260507134543 | 52 | 0.0 | 0.0 | 0.00 | 0.18 | 0.01 | 63 | 1013.2 | |
| 20260507133101 | 52 | 0.0 | 0.0 | 0.00 | 0.18 | 0.01 | 66 | 1013.3 | |
| 20260507131551 | 52 | 0.0 | 0.0 | 0.00 | 0.18 | 0.01 | 68 | 1013.1 | |
| 20260507130104 | 52 | 0.0 | 0.0 | 0.00 | 0.18 | 0.01 | 70 | 1013.2 | |
| 20260507124547 | 52 | 0.0 | 0.0 | 0.00 | 0.20 | 0.01 | 69 | 1013.0 | |
| 20260507123042 | 53 | 0.0 | 0.0 | 0.00 | 0.20 | 0.01 | 72 | 1013.3 | |
| 20260507121604 | 53 | 0.0 | 0.0 | 0.00 | 0.20 | 0.01 | 73 | 1012.9 | |
| 20260507120057 | 53 | 0.0 | 0.0 | 0.00 | 0.20 | 0.01 | 76 | 1013.0 | |
| 20260507114626 | 53 | 0.0 | 0.0 | 0.00 | 0.20 | 0.01 | 78 | 1012.7 | |
| 20260507113045 | 53 | 0.0 | 0.0 | 0.00 | 0.20 | 0.01 | 74 | 1012.4 | |
| 20260507111547 | 54 | 0.0 | 0.0 | 0.00 | 0.20 | 0.01 | 62 | 1012.4 | |
| 20260507110046 | 54 | 0.0 | 0.0 | 0.00 | 0.20 | 0.01 | 46 | 1012.3 | |
| 20260507104548 | 54 | 0.0 | 0.0 | 0.00 | 0.20 | 0.01 | 47 | 1012.2 | |
| 20260507103045 | 54 | 0.0 | 0.0 | 0.00 | 0.20 | 0.01 | 48 | 1012.3 | |
| 20260507101547 | 54 | 0.0 | 0.0 | 0.00 | 0.20 | 0.01 | 45 | 1011.9 | |
| 20260507100048 | 54 | 0.0 | 0.0 | 0.00 | 0.20 | 0.01 | 48 | 1011.9 | |
| 20260507094544 | 54 | 0.0 | 0.0 | 0.00 | 0.20 | 0.01 | 49 | 1012.0 | |
| 20260507093050 | 54 | 0.0 | 0.0 | 0.00 | 0.20 | 0.01 | 50 | 1011.8 | |
| 20260507091550 | 54 | 0.0 | 0.0 | 0.00 | 0.20 | 0.01 | 52 | 1011.6 | |
| 20260507090048 | 54 | 0.0 | 0.0 | 0.00 | 0.20 | 0.01 | 52 | 1011.8 | |
| 20260507084556 | 54 | 0.0 | 0.0 | 0.00 | 0.20 | 0.01 | 55 | 1011.5 | |
| 20260507083054 | 54 | 0.0 | 0.0 | 0.00 | 0.20 | 0.01 | 56 | 1011.6 | |
| 20260507081545 | 54 | 0.0 | 0.0 | 0.00 | 0.20 | 0.01 | 58 | 1011.3 | |
| 20260507080105 | 54 | 0.0 | 0.0 | 0.00 | 0.20 | 0.01 | 57 | 1010.9 | |
| 20260507074550 | 54 | 0.0 | 0.0 | 0.00 | 0.20 | 0.01 | 56 | 1010.9 | |
| 20260507073048 | 55 | 0.0 | 0.0 | 0.00 | 0.20 | 0.01 | 57 | 1010.5 | |
| 20260507071546 | 55 | 0.0 | 0.0 | 0.00 | 0.20 | 0.01 | 54 | 1010.8 | |
| 20260507070045 | 55 | 0.0 | 0.0 | 0.00 | 0.20 | 0.01 | 52 | 1010.7 | |
| 20260507064544 | 55 | 0.0 | 0.0 | 0.00 | 0.20 | 0.01 | 46 | 1010.6 | |
| 20260507063045 | 55 | 0.0 | 0.0 | 0.00 | 0.20 | 0.01 | 42 | 1010.8 | |
| 20260507061546 | 55 | 0.0 | 0.0 | 0.00 | 0.20 | 0.01 | 44 | 1010.3 | |
| 20260507060043 | 56 | 0.0 | 0.0 | 0.00 | 0.20 | 0.01 | 52 | 1010.6 | |
| 20260507054541 | 56 | 0.0 | 0.0 | 0.00 | 0.20 | 0.01 | 58 | 1010.6 | |
| 20260507053046 | 56 | 0.0 | 0.0 | 0.01 | 0.20 | 0.01 | 64 | 1011.0 | |
| 20260507051545 | 57 | 0.0 | 0.0 | 0.01 | 0.20 | 0.01 | 67 | 1010.6 | |
| 20260507050046 | 58 | 0.0 | 0.0 | 0.01 | 0.20 | 0.01 | 69 | 1011.1 | |
| 20260507044549 | 59 | 0.0 | 0.0 | 0.01 | 0.20 | 0.01 | 76 | 1011.1 |